When you browse on this site, cookies collect data to enhance your experience and personalize the content and advertising you see.
Visit our Privacy Policy to learn more. By continuing to use the site, you agree to this use of cookies and data.
  • Em Portugal
  • Lista de países
  • Para 7 dias
  • Temperatura da água
  • Mapa do tempo
  • Widgets de tempo
  • user-avatar
    Iniciar Sessão

    Previsão horária em Lulki

    Hoje, 18 Setembro, Quarta-feira

    Tempo Temperatura Precipitação Vento Pressão Humidade
    00:00 +6°C° 0.3 mm 5 m/s 713 mmHg 88%
    01:00 +5°C° 0 mm 4 m/s 713 mmHg 91%
    02:00 +5°C° 0.1 mm 4 m/s 713 mmHg 91%
    03:00 +4°C° 0.1 mm 4 m/s 713 mmHg 92%
    04:00 +3°C° 0.1 mm 5 m/s 713 mmHg 92%
    05:00 +3°C° 0.1 mm 5 m/s 714 mmHg 91%
    06:00 +3°C° 0.1 mm 5 m/s 715 mmHg 89%
    07:00 +4°C° 0.1 mm 6 m/s 716 mmHg 88%
    08:00 +5°C° 0 mm 5 m/s 716 mmHg 87%
    09:00 +5°C° 0 mm 5 m/s 717 mmHg 86%
    10:00 +6°C° 0 mm 5 m/s 717 mmHg 84%
    11:00 +7°C° 0.1 mm 5 m/s 718 mmHg 79%
    12:00 +7°C° 0.1 mm 5 m/s 718 mmHg 74%
    13:00 +8°C° 0.1 mm 5 m/s 718 mmHg 69%
    14:00 +9°C° 0 mm 5 m/s 718 mmHg 67%
    15:00 +10°C° 0 mm 4 m/s 718 mmHg 66%
    16:00 +10°C° 0 mm 4 m/s 718 mmHg 65%
    17:00 +8°C° 0 mm 4 m/s 718 mmHg 69%
    18:00 +7°C° 0 mm 3 m/s 718 mmHg 73%
    19:00 +6°C° 0 mm 2 m/s 718 mmHg 77%
    20:00 +6°C° 0 mm 2 m/s 718 mmHg 78%
    21:00 +6°C° 0 mm 2 m/s 719 mmHg 79%
    22:00 +6°C° 0 mm 2 m/s 719 mmHg 79%
    23:00 +5°C° 0 mm 2 m/s 719 mmHg 83%

    Amanhã, 19 Setembro, Quinta-feira

    Tempo Temperatura Precipitação Vento Pressão Humidade
    00:00 +5°C° 0 mm 2 m/s 719 mmHg 86%
    01:00 +5°C° 0 mm 2 m/s 719 mmHg 89%
    02:00 +5°C° 0 mm 2 m/s 720 mmHg 88%
    03:00 +4°C° 0 mm 2 m/s 720 mmHg 87%
    04:00 +4°C° 0 mm 2 m/s 720 mmHg 86%
    05:00 +5°C° 0 mm 2 m/s 720 mmHg 84%
    06:00 +6°C° 0 mm 2 m/s 720 mmHg 81%
    07:00 +6°C° 0 mm 2 m/s 721 mmHg 78%
    08:00 +7°C° 0 mm 3 m/s 721 mmHg 71%
    09:00 +8°C° 0 mm 3 m/s 721 mmHg 64%
    10:00 +10°C° 0 mm 4 m/s 722 mmHg 56%
    11:00 +10°C° 0 mm 4 m/s 722 mmHg 56%
    12:00 +10°C° 0 mm 4 m/s 722 mmHg 56%
    13:00 +11°C° 0 mm 3 m/s 721 mmHg 55%
    14:00 +10°C° 0 mm 3 m/s 721 mmHg 57%
    15:00 +10°C° 0 mm 3 m/s 721 mmHg 58%
    16:00 +10°C° 0 mm 3 m/s 721 mmHg 59%
    17:00 +9°C° 0 mm 3 m/s 721 mmHg 67%
    18:00 +7°C° 0 mm 2 m/s 721 mmHg 76%
    19:00 +5°C° 0 mm 2 m/s 721 mmHg 84%
    20:00 +5°C° 0.1 mm 2 m/s 721 mmHg 85%
    21:00 +5°C° 0.1 mm 2 m/s 722 mmHg 87%
    22:00 +4°C° 0.1 mm 2 m/s 722 mmHg 88%
    23:00 +4°C° 0 mm 2 m/s 722 mmHg 90%

    Depois de amanhã, 20 Setembro, Sexta-feira

    Tempo Temperatura Precipitação Vento Pressão Humidade
    00:00 +4°C° 0 mm 2 m/s 722 mmHg 91%
    01:00 +4°C° 0 mm 2 m/s 722 mmHg 93%
    02:00 +3°C° 0 mm 2 m/s 722 mmHg 93%
    03:00 +3°C° 0 mm 2 m/s 722 mmHg 94%
    04:00 +4°C° 0 mm 1 m/s 722 mmHg 94%
    05:00 +5°C° 0 mm 1 m/s 722 mmHg 92%
    06:00 +6°C° 0 mm 1 m/s 722 mmHg 89%
    07:00 +6°C° 0 mm 1 m/s 722 mmHg 86%
    08:00 +7°C° 0 mm 2 m/s 723 mmHg 76%
    09:00 +9°C° 0 mm 2 m/s 723 mmHg 66%
    10:00 +12°C° 0 mm 2 m/s 724 mmHg 56%
    11:00 +12°C° 0.1 mm 2 m/s 723 mmHg 56%
    12:00 +13°C° 0.1 mm 2 m/s 723 mmHg 56%
    13:00 +13°C° 0.1 mm 2 m/s 723 mmHg 55%
    14:00 +13°C° 0.1 mm 2 m/s 723 mmHg 57%
    15:00 +13°C° 0.1 mm 2 m/s 722 mmHg 60%
    16:00 +13°C° 0.1 mm 2 m/s 722 mmHg 62%
    17:00 +10°C° 0 mm 2 m/s 722 mmHg 70%
    18:00 +9°C° 0 mm 1 m/s 722 mmHg 78%
    19:00 +7°C° 0 mm 1 m/s 722 mmHg 85%
    20:00 +7°C° 0 mm 1 m/s 722 mmHg 87%
    21:00 +6°C° 0 mm 1 m/s 722 mmHg 88%
    22:00 +6°C° 0 mm 1 m/s 722 mmHg 89%
    23:00 +5°C° 0 mm 1 m/s 722 mmHg 89%

    21 Setembro, Sábado

    Tempo Temperatura Precipitação Vento Pressão Humidade
    00:00 +5°C° 0 mm 1 m/s 723 mmHg 89%
    01:00 +5°C° 0 mm 1 m/s 723 mmHg 90%
    02:00 +5°C° 0 mm 1 m/s 722 mmHg 89%
    03:00 +5°C° 0 mm 1 m/s 722 mmHg 89%
    04:00 +4°C° 0 mm 1 m/s 722 mmHg 89%
    05:00 +5°C° 0 mm 1 m/s 722 mmHg 85%
    06:00 +6°C° 0 mm 1 m/s 722 mmHg 81%
    07:00 +7°C° 0 mm 1 m/s 722 mmHg 78%
    08:00 +9°C° 0 mm 0 m/s 723 mmHg 68%
    09:00 +12°C° 0 mm 0 m/s 723 mmHg 59%
    10:00 +14°C° 0 mm 0 m/s 723 mmHg 50%
    11:00 +15°C° 0 mm 0 m/s 723 mmHg 47%
    12:00 +16°C° 0 mm 0 m/s 723 mmHg 44%
    13:00 +17°C° 0 mm 0 m/s 723 mmHg 41%
    14:00 +17°C° 0 mm 0 m/s 722 mmHg 46%
    15:00 +16°C° 0 mm 0 m/s 722 mmHg 50%
    16:00 +16°C° 0 mm 0 m/s 722 mmHg 55%
    17:00 +14°C° 0 mm 1 m/s 721 mmHg 61%
    18:00 +12°C° 0 mm 1 m/s 721 mmHg 68%
    19:00 +10°C° 0 mm 1 m/s 721 mmHg 74%
    20:00 +9°C° 0 mm 1 m/s 721 mmHg 75%
    21:00 +9°C° 0 mm 1 m/s 720 mmHg 76%
    22:00 +9°C° 0 mm 1 m/s 720 mmHg 78%
    23:00 +8°C° 0 mm 1 m/s 720 mmHg 78%

    22 Setembro, Domingo

    Tempo Temperatura Precipitação Vento Pressão Humidade
    00:00 +8°C° 0 mm 1 m/s 720 mmHg 78%
    01:00 +8°C° 0 mm 1 m/s 720 mmHg 78%
    02:00 +7°C° 0 mm 1 m/s 720 mmHg 77%
    03:00 +7°C° 0 mm 1 m/s 719 mmHg 77%
    04:00 +7°C° 0 mm 1 m/s 719 mmHg 76%
    05:00 +8°C° 0 mm 1 m/s 719 mmHg 72%
    06:00 +9°C° 0 mm 1 m/s 719 mmHg 69%
    07:00 +10°C° 0 mm 1 m/s 718 mmHg 66%
    08:00 +12°C° 0 mm 1 m/s 719 mmHg 59%
    09:00 +15°C° 0 mm 1 m/s 719 mmHg 52%
    10:00 +18°C° 0 mm 1 m/s 719 mmHg 44%
    11:00 +20°C° 0 mm 1 m/s 718 mmHg 42%
    12:00 +21°C° 0 mm 1 m/s 718 mmHg 40%
    13:00 +22°C° 0 mm 1 m/s 718 mmHg 38%
    14:00 +21°C° 0 mm 1 m/s 717 mmHg 44%
    15:00 +21°C° 0 mm 1 m/s 717 mmHg 49%
    16:00 +20°C° 0 mm 1 m/s 716 mmHg 54%
    17:00 +18°C° 0 mm 1 m/s 716 mmHg 59%
    18:00 +15°C° 0 mm 1 m/s 715 mmHg 64%
    19:00 +12°C° 0 mm 1 m/s 715 mmHg 68%
    20:00 +12°C° 0 mm 1 m/s 715 mmHg 67%
    21:00 +12°C° 0 mm 1 m/s 715 mmHg 66%
    22:00 +12°C° 0 mm 1 m/s 714 mmHg 65%
    23:00 +12°C° 0 mm 1 m/s 714 mmHg 64%

    23 Setembro, Segunda-feira

    Tempo Temperatura Precipitação Vento Pressão Humidade
    00:00 +12°C° 0 mm 1 m/s 714 mmHg 63%
    01:00 +12°C° 0 mm 1 m/s 714 mmHg 62%
    02:00 +11°C° 0 mm 1 m/s 713 mmHg 63%
    03:00 +11°C° 0 mm 1 m/s 713 mmHg 64%
    04:00 +11°C° 0 mm 1 m/s 713 mmHg 65%
    05:00 +12°C° 0 mm 1 m/s 713 mmHg 66%
    06:00 +12°C° 0 mm 1 m/s 713 mmHg 67%
    07:00 +13°C° 0 mm 1 m/s 713 mmHg 68%
    08:00 +15°C° 0 mm 1 m/s 713 mmHg 63%
    09:00 +19°C° 0 mm 1 m/s 713 mmHg 58%
    10:00 +21°C° 0 mm 1 m/s 714 mmHg 53%
    11:00 +21°C° 0 mm 1 m/s 713 mmHg 53%
    12:00 +21°C° 0 mm 1 m/s 713 mmHg 53%
    13:00 +21°C° 0 mm 2 m/s 713 mmHg 53%
    14:00 +21°C° 0 mm 1 m/s 713 mmHg 58%
    15:00 +19°C° 0 mm 1 m/s 712 mmHg 64%
    16:00 +18°C° 0 mm 1 m/s 712 mmHg 69%
    17:00 +16°C° 0 mm 1 m/s 712 mmHg 71%
    18:00 +15°C° 0 mm 1 m/s 712 mmHg 73%
    19:00 +14°C° 0 mm 1 m/s 712 mmHg 75%
    20:00 +14°C° 0 mm 1 m/s 712 mmHg 77%
    21:00 +14°C° 0 mm 1 m/s 712 mmHg 78%
    22:00 +14°C° 0 mm 2 m/s 713 mmHg 80%
    23:00 +14°C° 0.4 mm 1 m/s 712 mmHg 85%
    Mostrar mais